Flag for Guinea Weather past 2 weeks in Nzérékoré, Guinea

Now
79 °F

Partly sunny.


Feels Like: 83 °F
Forecast: 63 / 92 °F
Wind: No wind

Location: Roberts Field

Current Time: Jan 27, 2015 at 8:28:18 AM

Latest Report: Jan 27, 2015 at 8:00 AM


Visibility: 5 mi

Pressure: 29.89 "Hg

Humidity: 94%

Dew point: 77 °F

Location of NzérékoréLocation

Historic Weather in Nzérékoré — Graph

°F

Nzérékoré temperature yesterday

Maximum temperature yesterday: 88 °F (at 11:30 AM)
Minimum temperature yesterday: 75 °F (at 1:00 AM)
Average temperature yesterday: 82 °F

Past Weeks' High & Low Weather Summary

 TemperatureHumidityPressure
High93 °F (Jan 13, 2:30 PM)100% (Jan 18, 3:30 AM)29.98 "Hg (Jan 18, 3:30 AM)
Low50 °F (Jan 19, 4:30 AM)33% (Jan 12, 2:30 PM)29.77 "Hg (Jan 20, 1:30 PM)
Average80 °F80%29.89 "Hg
* Reported Jan 12 4:00 AM — Jan 27 2:00 AM, Nzérékoré, Weather by CustomWeather, © 2014

Note: Actual official high and low records may vary slightly from our data, if they occured in-between our weather recording intervals... More about our weather records

Advertising

Nzérékoré weather history for previous 24 hours

 ConditionsComfort  
Time TempWeatherWind HumidityBarometerVisibility
2:00 AM
Jan 27
79 °FPassing clouds.No wind94%29.89 "Hg5 mi
1:30 AM79 °FPassing clouds.No wind94%29.92 "Hg6 mi
1:00 AM79 °FPassing clouds.No wind94%29.92 "Hg6 mi
12:30 AM79 °FPassing clouds.No wind94%29.92 "Hg6 mi
12:00 AM79 °FPassing clouds.No wind94%29.92 "Hg6 mi
11:30 PM
Jan 26
79 °FPassing clouds.No wind94%29.92 "Hg6 mi
11:00 PM79 °FPassing clouds.No wind94%29.92 "Hg6 mi
10:30 PM79 °FPassing clouds.No wind94%29.92 "HgN/A
10:00 PM79 °FPassing clouds.No wind94%29.92 "HgN/A
9:30 PM81 °FPassing clouds.No wind84%29.92 "HgN/A
9:00 PM81 °FPassing clouds.No wind84%29.92 "HgN/A
8:30 PM81 °FPassing clouds.No wind84%29.89 "HgN/A
2:30 PM88 °FPartly sunny.9 mph70%29.83 "HgN/A
2:00 PM88 °FPartly sunny.12 mph75%29.83 "HgN/A
1:30 PM88 °FPartly sunny.10 mph75%29.86 "HgN/A
1:00 PM88 °FPartly sunny.5 mph66%29.86 "HgN/A
12:30 PM88 °FPartly sunny.8 mph62%29.86 "HgN/A
12:00 PM86 °FPartly sunny.No wind75%29.89 "HgN/A
11:30 AM88 °FPartly sunny.9 mph70%29.89 "HgN/A
11:00 AM84 °FPartly sunny.No wind79%29.92 "HgN/A
Weather by CustomWeather, © 2014

See weather overviewHow to use our weather pages